sat.trackr.live / text

‹ back to catalog

STARLINK-3872

NORAD 52453 · 2022-049C

PAYLOAD ACTIVE UNKNOWN

§ Identity

Operator
Country
US
Launch date
2022-05-06
Launch site
AFETR
Launch vehicle
Mass (kg)
RCS (m²)

Purposes: comms

External: N2YO · Heavens-Above · Gunter

§ Orbital elements

Epoch: 2026-09-19T15:43:23.127456Z

Period
93.79 min
Inclination
53.1610°
Eccentricity
0.0001220
Mean motion
15.35405167 rev/d
Perigee alt
458.9 km
Apogee alt
460.6 km
Semi-major
6,837.9 km
B*
3.4933e-5
RAAN
273.5141°
Arg perigee
87.9649°
Mean anomaly
272.1494°
Rev number
24,145

§ Raw data

STARLINK-38721 52453U 22049C   26262.65512879  .00000838  00000+0  34933-4 0  99912 52453  53.1610 273.5141 0001220  87.9649 272.1494 15.35405167241450

JSON: /api/v1/satellites/52453 · /tle

For live sub-satellite position, see the globe view (requires WebGL).

§ Visibility from observer

Set your observer location to see the next 7 days of passes ≥ 10°. The values pass through the URL so the page stays shareable.

No JS? Fill the form by hand. The geolocation button needs JavaScript.